Time,TemperatureF,DewpointF,PressureIn,WindDirection,WindDirectionDegrees,WindSpeedMPH,WindSpeedGustMPH,Humidity,HourlyPrecipIn,Conditions,Clouds,dailyrainin,SoftwareType,DateUTC
2013-10-23 00:00:00,43.0,-9.9,29.79,NNE,23,0.0,0.0,1,0.00,,,0.00,WUHU216HW,2013-10-23 07:00:00,
2013-10-23 00:05:00,43.0,-9.9,29.79,NNE,23,0.0,0.0,1,0.00,,,0.00,WUHU216HW,2013-10-23 07:05:00,
2013-10-23 00:10:00,42.8,-10.1,29.79,NNE,23,0.0,0.0,1,0.00,,,0.00,WUHU216HW,2013-10-23 07:10:00,
2013-10-23 00:15:00,42.8,-10.1,29.79,NNE,23,0.0,0.0,1,0.00,,,0.00,WUHU216HW,2013-10-23 07:15:00,
2013-10-23 00:20:00,42.8,-10.1,29.79,NNE,23,0.0,0.0,1,0.00,,,0.00,WUHU216HW,2013-10-23 07:20:00,
2013-10-23 00:25:00,42.8,-10.1,29.79,NNE,23,0.0,0.0,1,0.00,,,0.00,WUHU216HW,2013-10-23 07:25:00,
2013-10-23 00:30:00,42.8,-10.1,29.79,NNE,23,0.0,0.0,1,0.00,,,0.00,WUHU216HW,2013-10-23 07:30:00,
2013-10-23 00:35:00,42.8,-10.1,29.79,NNE,23,0.0,0.0,1,0.00,,,0.00,WUHU216HW,2013-10-23 07:35:00,
2013-10-23 00:40:00,42.7,-10.2,29.79,NNE,23,0.0,0.0,1,0.00,,,0.00,WUHU216HW,2013-10-23 07:40:00,
2013-10-23 00:45:00,42.7,-10.2,29.79,NNE,23,0.0,0.0,1,0.00,,,0.00,WUHU216HW,2013-10-23 07:45:00,
2013-10-23 00:50:00,42.7,-10.2,29.79,NNE,23,0.0,0.0,1,0.00,,,0.00,WUHU216HW,2013-10-23 07:50:00,
2013-10-23 01:00:00,42.3,-10.4,29.79,NNE,23,0.0,0.0,1,0.00,,,0.00,WUHU216HW,2013-10-23 08:00:00,
2013-10-23 01:05:00,42.3,-10.4,29.79,NNE,23,0.0,0.0,1,0.00,,,0.00,WUHU216HW,2013-10-23 08:05:00,
2013-10-23 02:00:00,41.4,-11.1,29.79,NNE,23,0.0,0.0,1,0.00,,,0.00,WUHU216HW,2013-10-23 09:00:00,
2013-10-23 02:05:00,41.4,-11.1,29.79,NNE,23,0.0,0.0,1,0.00,,,0.00,WUHU216HW,2013-10-23 09:05:00,
2013-10-23 02:10:00,41.2,-11.2,29.79,NNE,23,0.0,0.0,1,0.00,,,0.00,WUHU216HW,2013-10-23 09:10:00,
2013-10-23 02:15:00,41.2,-11.2,29.79,NNE,23,0.0,0.0,1,0.00,,,0.00,WUHU216HW,2013-10-23 09:15:00,
2013-10-23 02:20:00,41.2,-11.2,29.79,NNE,23,0.0,0.0,1,0.00,,,0.00,WUHU216HW,2013-10-23 09:20:00,
2013-10-23 02:25:00,41.2,-11.2,29.79,NNE,23,0.0,0.0,1,0.00,,,0.00,WUHU216HW,2013-10-23 09:25:00,
2013-10-23 02:30:00,41.0,-11.3,29.79,NNE,23,0.0,0.0,1,0.00,,,0.00,WUHU216HW,2013-10-23 09:30:00,
2013-10-23 02:35:00,41.0,-11.3,29.79,NNE,23,0.0,0.0,1,0.00,,,0.00,WUHU216HW,2013-10-23 09:35:00,
2013-10-23 02:40:00,41.0,-11.3,29.79,NNE,23,0.0,0.0,1,0.00,,,0.00,WUHU216HW,2013-10-23 09:40:00,
2013-10-23 02:45:00,41.0,-11.3,29.79,NNE,23,0.0,0.0,1,0.00,,,0.00,WUHU216HW,2013-10-23 09:45:00,
2013-10-23 02:50:00,41.0,-11.3,29.79,NNE,23,0.0,0.0,1,0.00,,,0.00,WUHU216HW,2013-10-23 09:50:00,
2013-10-23 02:55:00,40.9,-11.5,29.79,NNE,23,0.0,0.0,1,0.00,,,0.00,WUHU216HW,2013-10-23 09:55:00,
2013-10-23 03:00:00,40.9,-11.5,29.78,NNE,23,0.0,0.0,1,0.00,,,0.00,WUHU216HW,2013-10-23 10:00:00,
2013-10-23 03:05:00,40.9,-11.5,29.78,NNE,23,0.0,0.0,1,0.00,,,0.00,WUHU216HW,2013-10-23 10:05:00,
2013-10-23 03:10:00,40.9,-11.5,29.78,NNE,23,0.0,0.0,1,0.00,,,0.00,WUHU216HW,2013-10-23 10:10:00,
2013-10-23 03:15:00,40.9,-11.5,29.78,NNE,23,0.0,0.0,1,0.00,,,0.00,WUHU216HW,2013-10-23 10:15:00,
2013-10-23 03:20:00,40.7,-11.6,29.78,NNE,23,0.0,0.0,1,0.00,,,0.00,WUHU216HW,2013-10-23 10:20:00,
2013-10-23 03:25:00,40.9,-11.5,29.78,NNE,23,0.0,0.0,1,0.00,,,0.00,WUHU216HW,2013-10-23 10:25:00,
2013-10-23 03:30:00,40.9,-11.5,29.78,NNE,23,0.0,0.0,1,0.00,,,0.00,WUHU216HW,2013-10-23 10:30:00,
2013-10-23 03:35:00,40.9,-11.5,29.78,NNE,23,0.0,0.0,1,0.00,,,0.00,WUHU216HW,2013-10-23 10:35:00,
2013-10-23 03:40:00,40.7,-11.6,29.78,NNE,23,0.0,0.0,1,0.00,,,0.00,WUHU216HW,2013-10-23 10:40:00,
2013-10-23 03:45:00,40.7,-11.6,29.78,NNE,23,0.0,0.0,1,0.00,,,0.00,WUHU216HW,2013-10-23 10:45:00,
2013-10-23 03:50:00,40.7,-11.6,29.78,NNE,23,0.0,0.0,1,0.00,,,0.00,WUHU216HW,2013-10-23 10:50:00,
2013-10-23 03:55:00,40.7,-11.6,29.78,NNE,23,0.0,0.0,1,0.00,,,0.00,WUHU216HW,2013-10-23 10:55:00,
2013-10-23 04:00:00,40.5,-11.8,29.78,NNE,23,0.0,0.0,1,0.00,,,0.00,WUHU216HW,2013-10-23 11:00:00,
2013-10-23 04:05:00,40.5,-11.8,29.78,NNE,23,0.0,0.0,1,0.00,,,0.00,WUHU216HW,2013-10-23 11:05:00,
2013-10-23 04:10:00,40.3,-11.9,29.78,NNE,23,0.0,0.0,1,0.00,,,0.00,WUHU216HW,2013-10-23 11:10:00,
2013-10-23 04:15:00,40.3,-11.9,29.78,NNE,23,0.0,0.0,1,0.00,,,0.00,WUHU216HW,2013-10-23 11:15:00,
2013-10-23 04:20:00,40.3,-11.9,29.78,NNE,23,0.0,0.0,1,0.00,,,0.00,WUHU216HW,2013-10-23 11:20:00,
2013-10-23 04:25:00,40.1,-12.1,29.78,NNE,23,0.0,0.0,1,0.00,,,0.00,WUHU216HW,2013-10-23 11:25:00,
2013-10-23 04:30:00,40.0,-12.2,29.78,NNE,23,0.0,0.0,1,0.00,,,0.00,WUHU216HW,2013-10-23 11:30:00,
2013-10-23 04:35:00,40.0,-12.2,29.78,NNE,23,0.0,0.0,1,0.01,,,0.01,WUHU216HW,2013-10-23 11:35:00,
2013-10-23 04:40:00,40.0,-12.2,29.78,NNE,23,0.0,0.0,1,0.01,,,0.01,WUHU216HW,2013-10-23 11:40:00,
2013-10-23 04:45:00,39.8,-12.3,29.79,NNE,23,0.0,0.0,1,0.01,,,0.01,WUHU216HW,2013-10-23 11:45:00,
2013-10-23 04:50:00,39.6,-12.5,29.78,NNE,23,0.0,0.0,1,0.01,,,0.01,WUHU216HW,2013-10-23 11:50:00,
2013-10-23 04:55:00,39.4,-12.6,29.78,NNE,23,0.0,0.0,1,0.01,,,0.01,WUHU216HW,2013-10-23 11:55:00,
2013-10-23 05:00:00,39.4,-12.6,29.78,NNE,23,0.0,0.0,1,0.01,,,0.01,WUHU216HW,2013-10-23 12:00:00,
2013-10-23 05:05:00,39.2,-12.8,29.78,NNE,23,0.0,0.0,1,0.01,,,0.01,WUHU216HW,2013-10-23 12:05:00,
2013-10-23 05:10:00,39.2,-12.8,29.78,NNE,23,0.0,0.0,1,0.01,,,0.01,WUHU216HW,2013-10-23 12:10:00,
2013-10-23 05:15:00,39.2,-12.8,29.78,NNE,23,0.0,0.0,1,0.01,,,0.01,WUHU216HW,2013-10-23 12:15:00,
2013-10-23 05:20:00,39.1,-13.0,29.78,NNE,23,0.0,0.0,1,0.01,,,0.01,WUHU216HW,2013-10-23 12:20:00,
2013-10-23 05:25:00,38.9,-13.0,29.78,NNE,23,0.0,0.0,1,0.01,,,0.01,WUHU216HW,2013-10-23 12:25:00,
2013-10-23 05:30:00,38.9,-13.0,29.78,NNE,23,0.0,0.0,1,0.01,,,0.01,WUHU216HW,2013-10-23 12:30:00,
2013-10-23 05:35:00,38.7,-13.2,29.78,NNE,23,0.0,0.0,1,0.00,,,0.01,WUHU216HW,2013-10-23 12:35:00,
2013-10-23 05:40:00,38.5,-13.3,29.78,NNE,23,0.0,0.0,1,0.00,,,0.01,WUHU216HW,2013-10-23 12:40:00,
2013-10-23 05:45:00,38.5,-13.3,29.78,NNE,23,0.0,0.0,1,0.00,,,0.01,WUHU216HW,2013-10-23 12:45:00,
2013-10-23 05:50:00,38.3,-13.5,29.78,NNE,23,0.0,0.0,1,0.00,,,0.01,WUHU216HW,2013-10-23 12:50:00,
2013-10-23 05:55:00,38.3,-13.5,29.78,WNW,293,0.0,0.0,1,0.00,,,0.01,WUHU216HW,2013-10-23 12:55:00,
2013-10-23 06:00:00,38.3,-13.5,29.78,WNW,293,0.0,0.0,1,0.00,,,0.01,WUHU216HW,2013-10-23 13:00:00,
2013-10-23 06:05:00,38.3,-13.5,29.78,NNW,338,0.0,0.0,1,0.00,,,0.01,WUHU216HW,2013-10-23 13:05:00,
2013-10-23 06:10:00,38.2,-13.7,29.78,NNW,338,0.0,0.0,1,0.00,,,0.01,WUHU216HW,2013-10-23 13:10:00,
2013-10-23 06:15:00,38.2,-13.7,29.78,NNW,338,0.0,0.0,1,0.00,,,0.01,WUHU216HW,2013-10-23 13:15:00,
2013-10-23 06:20:00,38.2,-13.7,29.78,NNW,338,0.0,0.0,1,0.00,,,0.01,WUHU216HW,2013-10-23 13:20:00,
2013-10-23 06:25:00,38.0,-13.8,29.78,NNW,338,0.0,0.0,1,0.00,,,0.01,WUHU216HW,2013-10-23 13:25:00,
2013-10-23 06:30:00,38.0,-13.8,29.78,NNW,338,0.0,0.0,1,0.00,,,0.01,WUHU216HW,2013-10-23 13:30:00,
2013-10-23 06:35:00,37.8,-13.9,29.78,NNW,338,0.0,0.0,1,0.00,,,0.01,WUHU216HW,2013-10-23 13:35:00,
2013-10-23 06:40:00,37.8,-13.9,29.78,NNW,338,0.0,0.0,1,0.00,,,0.01,WUHU216HW,2013-10-23 13:40:00,
2013-10-23 06:45:00,37.8,-13.9,29.78,NNW,338,0.0,0.0,1,0.00,,,0.01,WUHU216HW,2013-10-23 13:45:00,
2013-10-23 06:50:00,37.8,-13.9,29.77,NNW,338,0.0,0.0,1,0.00,,,0.01,WUHU216HW,2013-10-23 13:50:00,
2013-10-23 06:55:00,37.8,-13.9,29.78,NNW,338,0.0,0.0,1,0.00,,,0.01,WUHU216HW,2013-10-23 13:55:00,
2013-10-23 07:00:00,37.8,-13.9,29.78,NNW,338,0.0,0.0,1,0.00,,,0.01,WUHU216HW,2013-10-23 14:00:00,
2013-10-23 07:05:00,38.0,-13.8,29.78,NNW,338,0.0,0.0,1,0.00,,,0.01,WUHU216HW,2013-10-23 14:05:00,
2013-10-23 07:10:00,38.0,-13.8,29.78,NNW,338,0.0,0.0,1,0.00,,,0.01,WUHU216HW,2013-10-23 14:10:00,
2013-10-23 07:15:00,38.0,-13.8,29.78,NNW,338,0.0,0.0,1,0.00,,,0.01,WUHU216HW,2013-10-23 14:15:00,
2013-10-23 07:20:00,38.2,-13.7,29.77,NNW,338,0.0,0.0,1,0.00,,,0.01,WUHU216HW,2013-10-23 14:20:00,
2013-10-23 07:25:00,38.2,-13.7,29.78,North,0,0.0,0.0,1,0.00,,,0.01,WUHU216HW,2013-10-23 14:25:00,
2013-10-23 07:30:00,38.2,-13.7,29.78,North,0,0.0,0.0,1,0.00,,,0.01,WUHU216HW,2013-10-23 14:30:00,
2013-10-23 07:35:00,38.2,-13.7,29.78,North,0,0.0,0.0,1,0.00,,,0.01,WUHU216HW,2013-10-23 14:35:00,
2013-10-23 07:40:00,38.2,-13.7,29.78,North,0,0.0,0.0,1,0.00,,,0.01,WUHU216HW,2013-10-23 14:40:00,
2013-10-23 07:45:00,38.3,-13.5,29.78,North,0,0.0,0.0,1,0.00,,,0.01,WUHU216HW,2013-10-23 14:45:00,
2013-10-23 07:50:00,38.3,-13.5,29.78,ENE,68,0.0,0.0,1,0.00,,,0.01,WUHU216HW,2013-10-23 14:50:00,
2013-10-23 07:55:00,38.2,-13.7,29.78,ENE,68,0.0,0.0,1,0.00,,,0.01,WUHU216HW,2013-10-23 14:55:00,
2013-10-23 08:00:00,38.5,-13.3,29.78,ENE,68,0.0,0.0,1,0.00,,,0.01,WUHU216HW,2013-10-23 15:00:00,
2013-10-23 08:05:00,38.5,-13.3,29.78,ENE,68,0.0,0.0,1,0.00,,,0.01,WUHU216HW,2013-10-23 15:05:00,
2013-10-23 08:10:00,38.3,-13.5,29.78,ENE,68,0.0,0.0,1,0.00,,,0.01,WUHU216HW,2013-10-23 15:10:00,
2013-10-23 08:15:00,38.3,-13.5,29.78,ENE,68,0.0,0.0,1,0.00,,,0.01,WUHU216HW,2013-10-23 15:15:00,
2013-10-23 08:20:00,38.5,-13.3,29.78,ENE,68,0.0,0.0,1,0.00,,,0.01,WUHU216HW,2013-10-23 15:20:00,
2013-10-23 08:25:00,38.5,-13.3,29.78,ENE,68,0.0,0.0,1,0.00,,,0.01,WUHU216HW,2013-10-23 15:25:00,
2013-10-23 08:30:00,38.5,-13.3,29.79,ENE,68,0.0,0.0,1,0.00,,,0.01,WUHU216HW,2013-10-23 15:30:00,
2013-10-23 08:35:00,38.5,-13.3,29.79,ENE,68,0.0,0.0,1,0.00,,,0.01,WUHU216HW,2013-10-23 15:35:00,
2013-10-23 08:40:00,38.5,-13.3,29.79,ENE,68,0.0,0.0,1,0.00,,,0.01,WUHU216HW,2013-10-23 15:40:00,
2013-10-23 08:45:00,38.7,-13.2,29.79,ENE,68,0.0,0.0,1,0.00,,,0.01,WUHU216HW,2013-10-23 15:45:00,
2013-10-23 08:50:00,38.7,-13.2,29.79,ENE,68,0.0,0.0,1,0.00,,,0.01,WUHU216HW,2013-10-23 15:50:00,
2013-10-23 08:55:00,38.9,-13.0,29.79,ENE,68,0.0,0.0,1,0.00,,,0.01,WUHU216HW,2013-10-23 15:55:00,
2013-10-23 09:00:00,39.2,-12.8,29.79,ENE,68,0.0,0.0,1,0.00,,,0.01,WUHU216HW,2013-10-23 16:00:00,
2013-10-23 09:05:00,39.4,-12.6,29.79,North,0,0.0,0.0,1,0.00,,,0.01,WUHU216HW,2013-10-23 16:05:00,
2013-10-23 09:10:00,39.8,-12.3,29.79,ENE,68,0.0,0.0,1,0.00,,,0.01,WUHU216HW,2013-10-23 16:10:00,
2013-10-23 09:15:00,40.1,-12.1,29.79,ENE,68,0.0,0.0,1,0.00,,,0.01,WUHU216HW,2013-10-23 16:15:00,
2013-10-23 09:20:00,40.3,-11.9,29.79,North,0,0.0,0.0,1,0.00,,,0.01,WUHU216HW,2013-10-23 16:20:00,
2013-10-23 09:25:00,40.9,-11.5,29.79,North,0,0.0,0.0,1,0.00,,,0.01,WUHU216HW,2013-10-23 16:25:00,
2013-10-23 09:30:00,41.2,-11.2,29.79,North,0,0.0,0.0,1,0.00,,,0.01,WUHU216HW,2013-10-23 16:30:00,
2013-10-23 09:35:00,41.9,-10.7,29.79,North,0,0.0,0.0,1,0.00,,,0.01,WUHU216HW,2013-10-23 16:35:00,
2013-10-23 09:40:00,42.1,-10.6,29.79,North,0,0.0,0.0,1,0.00,,,0.01,WUHU216HW,2013-10-23 16:40:00,
2013-10-23 09:45:00,42.5,-10.3,29.79,North,0,0.0,0.0,1,0.00,,,0.01,WUHU216HW,2013-10-23 16:45:00,
2013-10-23 09:50:00,42.8,-10.1,29.79,North,0,0.0,0.0,1,0.00,,,0.01,WUHU216HW,2013-10-23 16:50:00,
2013-10-23 09:55:00,43.2,-9.8,29.79,North,0,0.0,0.0,1,0.00,,,0.01,WUHU216HW,2013-10-23 16:55:00,
2013-10-23 10:00:00,43.6,-9.5,29.79,North,0,0.0,0.0,1,0.00,,,0.01,WUHU216HW,2013-10-23 17:00:00,
2013-10-23 10:05:00,43.7,-9.4,29.79,North,0,0.0,0.0,1,0.00,,,0.01,WUHU216HW,2013-10-23 17:05:00,
2013-10-23 10:10:00,43.9,-9.2,29.80,North,0,0.0,0.0,1,0.00,,,0.01,WUHU216HW,2013-10-23 17:10:00,
2013-10-23 10:15:00,43.9,-9.2,29.79,North,0,0.0,0.0,1,0.00,,,0.01,WUHU216HW,2013-10-23 17:15:00,
2013-10-23 10:20:00,43.9,-9.2,29.80,North,0,0.0,0.0,1,0.00,,,0.01,WUHU216HW,2013-10-23 17:20:00,
2013-10-23 10:25:00,43.9,-9.2,29.79,North,0,0.0,0.0,1,0.00,,,0.01,WUHU216HW,2013-10-23 17:25:00,
2013-10-23 10:30:00,44.5,-8.8,29.79,North,0,0.0,0.0,1,0.00,,,0.01,WUHU216HW,2013-10-23 17:30:00,
2013-10-23 10:35:00,45.9,-7.6,29.79,North,0,0.0,0.0,1,0.00,,,0.01,WUHU216HW,2013-10-23 17:35:00,
2013-10-23 10:40:00,47.7,-6.2,29.79,North,0,0.0,0.0,1,0.00,,,0.01,WUHU216HW,2013-10-23 17:40:00,
2013-10-23 10:45:00,48.4,-5.7,29.79,North,0,0.0,0.0,1,0.00,,,0.01,WUHU216HW,2013-10-23 17:45:00,
2013-10-23 10:50:00,48.8,-5.4,29.79,North,0,0.0,0.0,1,0.00,,,0.01,WUHU216HW,2013-10-23 17:50:00,
2013-10-23 10:55:00,49.3,-5.0,29.80,North,0,0.0,0.0,1,0.00,,,0.01,WUHU216HW,2013-10-23 17:55:00,
2013-10-23 11:00:00,50.4,-4.2,29.80,North,0,0.0,0.0,1,0.00,,,0.01,WUHU216HW,2013-10-23 18:00:00,
2013-10-23 11:05:00,50.8,-4.0,29.80,North,0,0.0,0.0,1,0.00,,,0.01,WUHU216HW,2013-10-23 18:05:00,
2013-10-23 11:10:00,50.6,-4.0,29.80,North,0,0.0,0.0,1,0.00,,,0.01,WUHU216HW,2013-10-23 18:10:00,
2013-10-23 11:15:00,50.6,-4.0,29.80,North,0,0.0,0.0,1,0.00,,,0.01,WUHU216HW,2013-10-23 18:15:00,
2013-10-23 11:20:00,50.2,-4.3,29.80,North,0,0.0,0.0,1,0.00,,,0.01,WUHU216HW,2013-10-23 18:20:00,
2013-10-23 11:25:00,50.0,-4.5,29.79,North,0,0.0,0.0,1,0.00,,,0.01,WUHU216HW,2013-10-23 18:25:00,
2013-10-23 11:30:00,50.2,-4.3,29.79,North,0,0.0,0.0,1,0.00,,,0.01,WUHU216HW,2013-10-23 18:30:00,
2013-10-23 11:35:00,50.4,-4.2,29.80,North,0,0.0,0.0,1,0.00,,,0.01,WUHU216HW,2013-10-23 18:35:00,
2013-10-23 11:40:00,50.6,-4.0,29.80,North,0,0.0,0.0,1,0.00,,,0.01,WUHU216HW,2013-10-23 18:40:00,
2013-10-23 11:45:00,50.8,-4.0,29.79,North,0,0.0,0.0,1,0.00,,,0.01,WUHU216HW,2013-10-23 18:45:00,
2013-10-23 11:50:00,51.1,-3.6,29.80,North,0,0.0,0.0,1,0.00,,,0.01,WUHU216HW,2013-10-23 18:50:00,
2013-10-23 11:55:00,51.5,-3.3,29.80,North,0,0.0,0.0,1,0.00,,,0.01,WUHU216HW,2013-10-23 18:55:00,
2013-10-23 12:00:00,51.8,-3.1,29.80,North,0,0.0,0.0,1,0.00,,,0.01,WUHU216HW,2013-10-23 19:00:00,
2013-10-23 12:05:00,52.2,-2.8,29.80,North,0,0.0,0.0,1,0.00,,,0.01,WUHU216HW,2013-10-23 19:05:00,
2013-10-23 12:10:00,52.6,-2.5,29.80,North,0,0.0,0.0,1,0.00,,,0.01,WUHU216HW,2013-10-23 19:10:00,
2013-10-23 12:15:00,53.1,-2.1,29.80,North,0,0.0,0.0,1,0.00,,,0.01,WUHU216HW,2013-10-23 19:15:00,
2013-10-23 12:20:00,54.0,-1.3,29.80,NNE,23,0.0,0.0,1,0.00,,,0.01,WUHU216HW,2013-10-23 19:20:00,
2013-10-23 12:25:00,54.7,-0.7,29.79,ENE,68,0.0,0.0,1,0.00,,,0.01,WUHU216HW,2013-10-23 19:25:00,
2013-10-23 12:30:00,55.6,-0.1,29.79,ENE,68,0.0,0.0,1,0.00,,,0.01,WUHU216HW,2013-10-23 19:30:00,
2013-10-23 12:35:00,56.7,0.7,29.79,NNE,23,0.0,0.0,1,0.00,,,0.01,WUHU216HW,2013-10-23 19:35:00,
2013-10-23 12:40:00,58.5,2.1,29.79,NE,45,0.0,0.0,1,0.00,,,0.01,WUHU216HW,2013-10-23 19:40:00,
2013-10-23 12:45:00,59.4,2.8,29.79,NNE,23,0.0,0.0,1,0.00,,,0.01,WUHU216HW,2013-10-23 19:45:00,
2013-10-23 12:50:00,60.1,3.4,29.79,NNE,23,0.0,0.0,1,0.00,,,0.01,WUHU216HW,2013-10-23 19:50:00,
2013-10-23 12:55:00,60.5,3.7,29.79,NNE,23,0.0,0.0,1,0.00,,,0.01,WUHU216HW,2013-10-23 19:55:00,
2013-10-23 13:00:00,60.7,3.8,29.79,NNE,23,0.0,0.0,1,0.00,,,0.01,WUHU216HW,2013-10-23 20:00:00,
2013-10-23 13:05:00,60.8,4.0,29.79,NNE,23,0.0,0.0,1,0.00,,,0.01,WUHU216HW,2013-10-23 20:05:00,
2013-10-23 13:10:00,61.2,4.2,29.79,ENE,68,0.0,0.0,1,0.00,,,0.01,WUHU216HW,2013-10-23 20:10:00,
2013-10-23 13:15:00,61.6,4.5,29.79,NE,45,0.0,0.0,1,0.00,,,0.01,WUHU216HW,2013-10-23 20:15:00,
2013-10-23 13:20:00,61.9,4.9,29.78,ESE,113,0.0,0.0,1,0.00,,,0.01,WUHU216HW,2013-10-23 20:20:00,
2013-10-23 13:25:00,62.3,5.1,29.78,East,90,0.0,0.0,1,0.00,,,0.01,WUHU216HW,2013-10-23 20:25:00,
2013-10-23 13:30:00,62.5,5.2,29.78,NNE,23,0.0,0.0,1,0.00,,,0.01,WUHU216HW,2013-10-23 20:30:00,
2013-10-23 13:35:00,62.8,5.5,29.78,NE,45,0.0,0.0,1,0.00,,,0.01,WUHU216HW,2013-10-23 20:35:00,
2013-10-23 13:40:00,63.0,5.7,29.78,NE,45,0.0,0.0,1,0.00,,,0.01,WUHU216HW,2013-10-23 20:40:00,
2013-10-23 13:45:00,63.2,5.8,29.78,NE,45,0.0,0.0,1,0.00,,,0.01,WUHU216HW,2013-10-23 20:45:00,
2013-10-23 13:50:00,63.4,6.0,29.77,NE,45,0.0,0.0,1,0.00,,,0.01,WUHU216HW,2013-10-23 20:50:00,
2013-10-23 13:55:00,63.4,6.0,29.77,NE,45,0.0,0.0,1,0.00,,,0.01,WUHU216HW,2013-10-23 20:55:00,
2013-10-23 14:00:00,63.4,6.0,29.77,East,90,0.0,0.0,1,0.00,,,0.01,WUHU216HW,2013-10-23 21:00:00,
2013-10-23 14:05:00,63.2,5.8,29.77,NE,45,0.0,0.0,1,0.00,,,0.01,WUHU216HW,2013-10-23 21:05:00,
2013-10-23 14:10:00,63.0,5.7,29.77,East,90,0.0,0.0,1,0.00,,,0.01,WUHU216HW,2013-10-23 21:10:00,
2013-10-23 14:15:00,63.0,5.7,29.76,ENE,68,0.0,0.0,1,0.00,,,0.01,WUHU216HW,2013-10-23 21:15:00,
2013-10-23 14:20:00,63.0,5.7,29.77,NE,45,0.0,0.0,1,0.00,,,0.01,WUHU216HW,2013-10-23 21:20:00,
2013-10-23 14:25:00,63.0,5.7,29.76,East,90,0.0,0.0,1,0.00,,,0.01,WUHU216HW,2013-10-23 21:25:00,
2013-10-23 14:30:00,62.8,5.5,29.76,ENE,68,0.0,0.0,1,0.00,,,0.01,WUHU216HW,2013-10-23 21:30:00,
2013-10-23 14:35:00,62.8,5.5,29.76,ENE,68,0.0,0.0,1,0.00,,,0.01,WUHU216HW,2013-10-23 21:35:00,
2013-10-23 14:40:00,62.6,5.4,29.76,East,90,0.0,0.0,1,0.00,,,0.01,WUHU216HW,2013-10-23 21:40:00,
2013-10-23 14:45:00,62.6,5.4,29.76,East,90,0.0,0.0,1,0.00,,,0.01,WUHU216HW,2013-10-23 21:45:00,
2013-10-23 14:50:00,62.6,5.4,29.76,East,90,0.0,0.0,1,0.00,,,0.01,WUHU216HW,2013-10-23 21:50:00,
2013-10-23 14:55:00,62.8,5.5,29.76,ENE,68,0.0,0.0,1,0.00,,,0.01,WUHU216HW,2013-10-23 21:55:00,
2013-10-23 15:00:00,62.8,5.5,29.76,NNE,23,0.0,0.0,1,0.00,,,0.01,WUHU216HW,2013-10-23 22:00:00,
2013-10-23 15:05:00,63.0,5.7,29.76,NNE,23,0.0,0.0,1,0.00,,,0.01,WUHU216HW,2013-10-23 22:05:00,
2013-10-23 15:10:00,63.0,5.7,29.76,NE,45,0.0,0.0,1,0.00,,,0.01,WUHU216HW,2013-10-23 22:10:00,
2013-10-23 15:15:00,63.0,5.7,29.76,NE,45,0.0,0.0,1,0.00,,,0.01,WUHU216HW,2013-10-23 22:15:00,
2013-10-23 15:20:00,63.0,5.7,29.76,NE,45,0.0,0.0,1,0.00,,,0.01,WUHU216HW,2013-10-23 22:20:00,
2013-10-23 15:25:00,63.0,5.7,29.76,NE,45,0.0,0.0,1,0.00,,,0.01,WUHU216HW,2013-10-23 22:25:00,
2013-10-23 15:30:00,63.0,5.7,29.76,NE,45,0.0,0.0,1,0.00,,,0.01,WUHU216HW,2013-10-23 22:30:00,
2013-10-23 15:35:00,63.0,5.7,29.76,NNE,23,0.0,0.0,1,0.00,,,0.01,WUHU216HW,2013-10-23 22:35:00,
2013-10-23 15:40:00,63.0,5.7,29.76,NNE,23,0.0,0.0,1,0.00,,,0.01,WUHU216HW,2013-10-23 22:40:00,
2013-10-23 15:45:00,63.0,5.7,29.76,NNE,23,0.0,0.0,1,0.00,,,0.01,WUHU216HW,2013-10-23 22:45:00,
2013-10-23 15:50:00,62.8,5.5,29.75,NNE,23,0.0,0.0,1,0.00,,,0.01,WUHU216HW,2013-10-23 22:50:00,
2013-10-23 15:55:00,62.6,5.4,29.76,NNE,23,0.0,0.0,1,0.00,,,0.01,WUHU216HW,2013-10-23 22:55:00,
2013-10-23 16:00:00,62.6,5.4,29.76,NNE,23,0.0,0.0,1,0.00,,,0.01,WUHU216HW,2013-10-23 23:00:00,
2013-10-23 16:05:00,62.3,5.1,29.76,NW,315,0.0,0.0,1,0.00,,,0.01,WUHU216HW,2013-10-23 23:05:00,
2013-10-23 16:10:00,62.3,5.1,29.76,East,90,0.0,0.0,1,0.00,,,0.01,WUHU216HW,2013-10-23 23:10:00,
2013-10-23 16:15:00,62.1,5.0,29.76,ENE,68,0.0,0.0,1,0.00,,,0.01,WUHU216HW,2013-10-23 23:15:00,
2013-10-23 16:20:00,61.9,4.9,29.76,ENE,68,0.0,0.0,1,0.00,,,0.01,WUHU216HW,2013-10-23 23:20:00,
2013-10-23 16:25:00,61.6,4.5,29.75,ENE,68,0.0,0.0,1,0.00,,,0.01,WUHU216HW,2013-10-23 23:25:00,
2013-10-23 16:30:00,61.2,4.2,29.75,ENE,68,0.0,0.0,1,0.00,,,0.01,WUHU216HW,2013-10-23 23:30:00,
2013-10-23 16:35:00,60.8,4.0,29.75,North,0,0.0,0.0,1,0.00,,,0.01,WUHU216HW,2013-10-23 23:35:00,
2013-10-23 16:40:00,60.5,3.7,29.75,NNE,23,0.0,0.0,1,0.00,,,0.01,WUHU216HW,2013-10-23 23:40:00,
2013-10-23 16:45:00,60.3,3.5,29.75,NNE,23,0.0,0.0,1,0.00,,,0.01,WUHU216HW,2013-10-23 23:45:00,
2013-10-23 16:50:00,60.1,3.4,29.75,NNE,23,0.0,0.0,1,0.00,,,0.01,WUHU216HW,2013-10-23 23:50:00,
2013-10-23 16:55:00,59.8,3.1,29.75,NNE,23,0.0,0.0,1,0.00,,,0.01,WUHU216HW,2013-10-23 23:55:00,
2013-10-23 17:00:00,59.4,2.8,29.75,NNE,23,0.0,0.0,1,0.00,,,0.01,WUHU216HW,2013-10-24 00:00:00,
2013-10-23 17:05:00,59.2,2.7,29.75,NNE,23,0.0,0.0,1,0.00,,,0.01,WUHU216HW,2013-10-24 00:05:00,
2013-10-23 17:10:00,58.9,2.3,29.75,NNE,23,0.0,0.0,1,0.00,,,0.01,WUHU216HW,2013-10-24 00:10:00,
2013-10-23 17:15:00,58.5,2.1,29.75,NNE,23,0.0,0.0,1,0.00,,,0.01,WUHU216HW,2013-10-24 00:15:00,
2013-10-23 17:20:00,58.1,1.8,29.75,NNE,23,0.0,0.0,1,0.00,,,0.01,WUHU216HW,2013-10-24 00:20:00,
2013-10-23 17:25:00,57.8,1.5,29.75,NNE,23,0.0,0.0,1,0.00,,,0.01,WUHU216HW,2013-10-24 00:25:00,
2013-10-23 17:30:00,57.4,1.3,29.75,NNE,23,0.0,0.0,1,0.00,,,0.01,WUHU216HW,2013-10-24 00:30:00,
2013-10-23 17:35:00,57.1,1.0,29.75,NNE,23,0.0,0.0,1,0.00,,,0.01,WUHU216HW,2013-10-24 00:35:00,
2013-10-23 17:40:00,56.7,0.7,29.75,NNE,23,0.0,0.0,1,0.00,,,0.01,WUHU216HW,2013-10-24 00:40:00,
2013-10-23 17:45:00,56.5,0.5,29.75,NNE,23,0.0,0.0,1,0.00,,,0.01,WUHU216HW,2013-10-24 00:45:00,
2013-10-23 17:50:00,56.0,0.2,29.75,NNE,23,0.0,0.0,1,0.00,,,0.01,WUHU216HW,2013-10-24 00:50:00,
2013-10-23 17:55:00,55.8,0.1,29.75,NNE,23,0.0,0.0,1,0.00,,,0.01,WUHU216HW,2013-10-24 00:55:00,
2013-10-23 18:00:00,55.4,-0.2,29.75,NNE,23,0.0,0.0,1,0.00,,,0.01,WUHU216HW,2013-10-24 01:00:00,
2013-10-23 18:05:00,55.3,-0.4,29.75,NNE,23,0.0,0.0,1,0.00,,,0.01,WUHU216HW,2013-10-24 01:05:00,
2013-10-23 18:10:00,54.9,-0.6,29.75,NNE,23,0.0,0.0,1,0.00,,,0.01,WUHU216HW,2013-10-24 01:10:00,
2013-10-23 18:15:00,54.5,-0.9,29.75,NNE,23,0.0,0.0,1,0.00,,,0.01,WUHU216HW,2013-10-24 01:15:00,
2013-10-23 18:20:00,54.4,-1.1,29.75,NNE,23,0.0,0.0,1,0.00,,,0.01,WUHU216HW,2013-10-24 01:20:00,
2013-10-23 18:25:00,54.0,-1.3,29.75,NNE,23,0.0,0.0,1,0.00,,,0.01,WUHU216HW,2013-10-24 01:25:00,
2013-10-23 18:30:00,53.8,-1.4,29.75,NNE,23,0.0,0.0,1,0.00,,,0.01,WUHU216HW,2013-10-24 01:30:00,
2013-10-23 18:35:00,53.5,-1.8,29.75,NNE,23,0.0,0.0,1,0.00,,,0.01,WUHU216HW,2013-10-24 01:35:00,
2013-10-23 18:40:00,53.1,-2.1,29.75,NNE,23,0.0,0.0,1,0.00,,,0.01,WUHU216HW,2013-10-24 01:40:00,
2013-10-23 18:45:00,52.9,-2.1,29.75,NNE,23,0.0,0.0,1,0.00,,,0.01,WUHU216HW,2013-10-24 01:45:00,
2013-10-23 18:50:00,52.7,-2.3,29.76,NNE,23,0.0,0.0,1,0.00,,,0.01,WUHU216HW,2013-10-24 01:50:00,
2013-10-23 18:55:00,52.4,-2.6,29.76,NNE,23,0.0,0.0,1,0.00,,,0.01,WUHU216HW,2013-10-24 01:55:00,
2013-10-23 19:00:00,52.2,-2.8,29.76,NNE,23,0.0,0.0,1,0.00,,,0.01,WUHU216HW,2013-10-24 02:00:00,
2013-10-23 19:05:00,51.8,-3.1,29.76,NNE,23,0.0,0.0,1,0.00,,,0.01,WUHU216HW,2013-10-24 02:05:00,
2013-10-23 19:10:00,51.7,-3.2,29.76,NNE,23,0.0,0.0,1,0.00,,,0.01,WUHU216HW,2013-10-24 02:10:00,
2013-10-23 19:15:00,51.5,-3.3,29.76,NNE,23,0.0,0.0,1,0.00,,,0.01,WUHU216HW,2013-10-24 02:15:00,
2013-10-23 19:20:00,51.3,-3.5,29.76,NNE,23,0.0,0.0,1,0.00,,,0.01,WUHU216HW,2013-10-24 02:20:00,
2013-10-23 19:25:00,51.1,-3.6,29.76,NNE,23,0.0,0.0,1,0.00,,,0.01,WUHU216HW,2013-10-24 02:25:00,
2013-10-23 19:30:00,50.8,-4.0,29.76,NNE,23,0.0,0.0,1,0.00,,,0.01,WUHU216HW,2013-10-24 02:30:00,
2013-10-23 19:35:00,50.6,-4.0,29.76,NNE,23,0.0,0.0,1,0.00,,,0.01,WUHU216HW,2013-10-24 02:35:00,
2013-10-23 19:40:00,50.4,-4.2,29.76,NNE,23,0.0,0.0,1,0.00,,,0.01,WUHU216HW,2013-10-24 02:40:00,
2013-10-23 19:45:00,50.2,-4.3,29.76,NNE,23,0.0,0.0,1,0.00,,,0.01,WUHU216HW,2013-10-24 02:45:00,
2013-10-23 19:50:00,50.0,-4.5,29.76,NNE,23,0.0,0.0,1,0.00,,,0.01,WUHU216HW,2013-10-24 02:50:00,
2013-10-23 19:55:00,50.0,-4.5,29.76,NNE,23,0.0,0.0,1,0.00,,,0.01,WUHU216HW,2013-10-24 02:55:00,
2013-10-23 20:00:00,49.9,-4.6,29.76,NNE,23,0.0,0.0,1,0.00,,,0.01,WUHU216HW,2013-10-24 03:00:00,
2013-10-23 20:05:00,49.9,-4.6,29.76,NNE,23,0.0,0.0,1,0.00,,,0.01,WUHU216HW,2013-10-24 03:05:00,
2013-10-23 20:10:00,49.7,-4.8,29.76,NNE,23,0.0,0.0,1,0.00,,,0.01,WUHU216HW,2013-10-24 03:10:00,
2013-10-23 20:15:00,49.7,-4.8,29.76,NNE,23,0.0,0.0,1,0.00,,,0.01,WUHU216HW,2013-10-24 03:15:00,
2013-10-23 20:20:00,49.5,-4.8,29.75,NNE,23,0.0,0.0,1,0.00,,,0.01,WUHU216HW,2013-10-24 03:20:00,
2013-10-23 20:25:00,49.3,-5.0,29.75,NNE,23,0.0,0.0,1,0.00,,,0.01,WUHU216HW,2013-10-24 03:25:00,
2013-10-23 20:30:00,49.3,-5.0,29.76,NNE,23,0.0,0.0,1,0.00,,,0.01,WUHU216HW,2013-10-24 03:30:00,
2013-10-23 20:35:00,49.1,-5.1,29.76,NNE,23,0.0,0.0,1,0.00,,,0.01,WUHU216HW,2013-10-24 03:35:00,
2013-10-23 20:40:00,49.0,-5.2,29.75,NNW,338,0.0,0.0,1,0.00,,,0.01,WUHU216HW,2013-10-24 03:40:00,
2013-10-23 20:45:00,49.0,-5.2,29.76,NNE,23,0.0,0.0,1,0.00,,,0.01,WUHU216HW,2013-10-24 03:45:00,
2013-10-23 20:50:00,49.0,-5.2,29.76,NNE,23,0.0,0.0,1,0.00,,,0.01,WUHU216HW,2013-10-24 03:50:00,
2013-10-23 20:55:00,48.8,-5.4,29.76,NNE,23,0.0,0.0,1,0.00,,,0.01,WUHU216HW,2013-10-24 03:55:00,
2013-10-23 21:00:00,48.8,-5.4,29.76,NNE,23,0.0,0.0,1,0.00,,,0.01,WUHU216HW,2013-10-24 04:00:00,
2013-10-23 21:01:00,48.8,-5.4,29.76,NNE,23,0.0,0.0,1,0.00,,,0.01,WUHU216HW,2013-10-24 04:01:00,
2013-10-23 21:02:00,48.8,-5.4,29.76,NNE,23,0.0,0.0,1,0.00,,,0.01,WUHU216HW,2013-10-24 04:02:00,
2013-10-23 21:07:00,48.6,-5.5,29.76,NNE,23,0.0,0.0,1,0.00,,,0.01,WUHU216HW,2013-10-24 04:07:00,
2013-10-23 21:12:00,48.6,-5.5,29.76,NNE,23,0.0,0.0,1,0.00,,,0.01,WUHU216HW,2013-10-24 04:12:00,
2013-10-23 21:17:00,48.6,-5.5,29.76,NNE,23,0.0,0.0,1,0.00,,,0.01,WUHU216HW,2013-10-24 04:17:00,
2013-10-23 21:22:00,48.4,-5.7,29.76,NNE,23,0.0,0.0,1,0.00,,,0.01,WUHU216HW,2013-10-24 04:22:00,
2013-10-23 21:27:00,48.2,-5.8,29.76,NNE,23,0.0,0.0,1,0.00,,,0.01,WUHU216HW,2013-10-24 04:27:00,
2013-10-23 21:32:00,48.2,-5.8,29.76,NNE,23,0.0,0.0,1,0.00,,,0.01,WUHU216HW,2013-10-24 04:32:00,
2013-10-23 21:37:00,48.2,-5.8,29.76,NNE,23,0.0,0.0,1,0.00,,,0.01,WUHU216HW,2013-10-24 04:37:00,
2013-10-23 21:42:00,48.1,-5.9,29.76,NNE,23,0.0,0.0,1,0.00,,,0.01,WUHU216HW,2013-10-24 04:42:00,
2013-10-23 21:47:00,48.1,-5.9,29.76,NNE,23,0.0,0.0,1,0.00,,,0.01,WUHU216HW,2013-10-24 04:47:00,
2013-10-23 21:52:00,47.9,-6.0,29.76,NNE,23,0.0,0.0,1,0.00,,,0.01,WUHU216HW,2013-10-24 04:52:00,
2013-10-23 21:57:00,47.9,-6.0,29.76,NNE,23,0.0,0.0,1,0.00,,,0.01,WUHU216HW,2013-10-24 04:57:00,
2013-10-23 22:02:00,47.9,-6.0,29.77,NNE,23,0.0,0.0,1,0.00,,,0.01,WUHU216HW,2013-10-24 05:02:00,
2013-10-23 22:07:00,47.7,-6.2,29.77,NNE,23,0.0,0.0,1,0.00,,,0.01,WUHU216HW,2013-10-24 05:07:00,
2013-10-23 22:12:00,47.7,-6.2,29.77,NNE,23,0.0,0.0,1,0.00,,,0.01,WUHU216HW,2013-10-24 05:12:00,
2013-10-23 22:17:00,47.5,-6.3,29.77,NNE,23,0.0,0.0,1,0.00,,,0.01,WUHU216HW,2013-10-24 05:17:00,
2013-10-23 22:22:00,47.5,-6.3,29.77,NNE,23,0.0,0.0,1,0.00,,,0.01,WUHU216HW,2013-10-24 05:22:00,
2013-10-23 22:27:00,47.5,-6.3,29.77,NNE,23,0.0,0.0,1,0.00,,,0.01,WUHU216HW,2013-10-24 05:27:00,
2013-10-23 22:32:00,47.3,-6.5,29.77,NNE,23,0.0,0.0,1,0.00,,,0.01,WUHU216HW,2013-10-24 05:32:00,
2013-10-23 22:37:00,47.2,-6.7,29.77,NNE,23,0.0,0.0,1,0.00,,,0.01,WUHU216HW,2013-10-24 05:37:00,
2013-10-23 22:42:00,47.2,-6.7,29.77,NNE,23,0.0,0.0,1,0.00,,,0.01,WUHU216HW,2013-10-24 05:42:00,
2013-10-23 22:47:00,47.2,-6.7,29.77,NNE,23,0.0,0.0,1,0.00,,,0.01,WUHU216HW,2013-10-24 05:47:00,
2013-10-23 22:52:00,47.0,-6.7,29.77,NNE,23,0.0,0.0,1,0.00,,,0.01,WUHU216HW,2013-10-24 05:52:00,
2013-10-23 22:57:00,46.8,-6.9,29.77,NNE,23,0.0,0.0,1,0.00,,,0.01,WUHU216HW,2013-10-24 05:57:00,
2013-10-23 23:02:00,46.8,-6.9,29.77,NNE,23,0.0,0.0,1,0.00,,,0.01,WUHU216HW,2013-10-24 06:02:00,
2013-10-23 23:07:00,46.8,-6.9,29.78,NNE,23,0.0,0.0,1,0.00,,,0.01,WUHU216HW,2013-10-24 06:07:00,
2013-10-23 23:12:00,46.6,-7.0,29.77,NNE,23,0.0,0.0,1,0.00,,,0.01,WUHU216HW,2013-10-24 06:12:00,
2013-10-23 23:17:00,46.6,-7.0,29.77,NNE,23,0.0,0.0,1,0.00,,,0.01,WUHU216HW,2013-10-24 06:17:00,
2013-10-23 23:22:00,46.4,-7.2,29.77,NNE,23,0.0,0.0,1,0.00,,,0.01,WUHU216HW,2013-10-24 06:22:00,
2013-10-23 23:27:00,46.4,-7.2,29.77,NNE,23,0.0,0.0,1,0.00,,,0.01,WUHU216HW,2013-10-24 06:27:00,
2013-10-23 23:32:00,46.4,-7.2,29.78,WNW,293,0.0,0.0,1,0.00,,,0.01,WUHU216HW,2013-10-24 06:32:00,
2013-10-23 23:37:00,46.3,-7.4,29.77,WSW,248,0.0,0.0,1,0.00,,,0.01,WUHU216HW,2013-10-24 06:37:00,
2013-10-23 23:42:00,46.3,-7.4,29.78,WNW,293,0.0,0.0,1,0.00,,,0.01,WUHU216HW,2013-10-24 06:42:00,
2013-10-23 23:47:00,46.1,-7.5,29.78,WNW,293,0.0,0.0,1,0.00,,,0.01,WUHU216HW,2013-10-24 06:47:00,
2013-10-23 23:52:00,46.1,-7.5,29.78,WNW,293,0.0,0.0,1,0.00,,,0.01,WUHU216HW,2013-10-24 06:52:00,
2013-10-23 23:57:00,45.9,-7.6,29.78,WNW,293,0.0,0.0,1,0.00,,,0.01,WUHU216HW,2013-10-24 06:57:00,